Weather History for Waskish, MN

Change the Weather History Date:

Friday, May 3, 2013

  Actual Average (KBDE) Record (KBDE)
Temperature  
Mean Temperature 36 °F -  
Max Temperature 48 °F 62 °F 85 °F (1980)
Min Temperature 24 °F 33 °F 12 °F (1967)
Degree Days  
Heating Degree Days 29    
Moisture  
Dew Point 23 °F    
Average Humidity 60    
Maximum Humidity 86    
Minimum Humidity 34    
Precipitation  
Precipitation 0.00 in - - ()
Sea Level Pressure  
Sea Level Pressure 30.38 in    
Wind  
Wind Speed 4 mph (NNE)    
Max Wind Speed 14 mph    
Max Gust Speed 25 mph    
Visibility 10 miles    
Events      
Averages and records for this station are not official NWS values.
T = Trace of Precipitation, MM = Missing Value Source: NWS Daily Summary

Daily Weather History Graph

Daily Weather History Graph

Search for Another Location

Airport:

Trip Planner

Search our weather history database for the weather conditions in past years. The results will help you decide how hot, cold, wet, or windy it might be!

Date:

Astronomy

May. 03, 2013 Rise Set
Actual Time 5:55 AM CDT 8:34 PM CDT
Civil Twilight 5:20 AM CDT 9:10 PM CDT
Nautical Twilight 4:35 AM CDT 9:55 PM CDT
Astronomical Twilight 3:43 AM CDT 10:48 PM CDT
Moon 2:50 AM CDT (5/3) 2:02 PM CDT (5/3)
Length of Visible Light 15h 49m
Length of Day
14h 39m
Last Quarter, 37% of the Moon is Illuminated
May 3
Last Quarter
May 9
New
May 17
First Quarter
May 24
Full
May 31
Last Quarter

Hourly Weather History & Observations

Time (CDT) Temp. Windchill Dew Point Humidity Pressure Visibility Wind Dir Wind Speed Gust Speed Precip Events Conditions
12:14 AM 28.4 °F - 21.2 °F 74% 30.52 in 10.0 mi Calm Calm - N/A   Clear
12:34 AM 28.4 °F - 21.2 °F 74% 30.52 in 10.0 mi Calm Calm - N/A   Clear
12:54 AM 28.4 °F - 21.2 °F 74% 30.51 in 10.0 mi Calm Calm - N/A   Clear
1:14 AM 28.4 °F - 21.2 °F 74% 30.50 in 10.0 mi Calm Calm - N/A   Clear
1:34 AM 26.6 °F - 21.2 °F 80% 30.50 in 10.0 mi Calm Calm - N/A   Clear
1:54 AM 26.6 °F - 21.2 °F 80% 30.49 in 10.0 mi Calm Calm - N/A   Clear
2:14 AM 26.6 °F 22.6 °F 21.2 °F 80% 30.49 in 10.0 mi North 3.5 mph - N/A   Clear
2:34 AM 26.6 °F - 21.2 °F 80% 30.49 in 10.0 mi Calm Calm - N/A   Clear
2:54 AM 26.6 °F - 21.2 °F 80% 30.48 in 10.0 mi Calm Calm - N/A   Clear
3:14 AM 26.6 °F - 21.2 °F 80% 30.48 in 10.0 mi Calm Calm - N/A   Clear
3:34 AM 26.6 °F - 21.2 °F 80% 30.47 in 10.0 mi Calm Calm - N/A   Clear
3:54 AM 24.8 °F - 21.2 °F 86% 30.48 in 10.0 mi Calm Calm - N/A   Clear
4:14 AM 24.8 °F 20.5 °F 21.2 °F 86% 30.47 in 10.0 mi North 3.5 mph - N/A   Clear
4:34 AM 24.8 °F - 21.2 °F 86% 30.47 in 10.0 mi Calm Calm - N/A   Clear
4:53 AM 24.8 °F 20.5 °F 21.2 °F 86% 30.47 in 10.0 mi North 3.5 mph - N/A   Clear
5:14 AM 24.8 °F - 21.2 °F 86% 30.47 in 10.0 mi Calm Calm - N/A   Clear
5:34 AM 24.8 °F 19.1 °F 21.2 °F 86% 30.46 in 10.0 mi North 4.6 mph - N/A   Clear
5:53 AM 24.8 °F 20.5 °F 21.2 °F 86% 30.47 in 10.0 mi NNE 3.5 mph - N/A   Clear
6:14 AM 24.8 °F - 21.2 °F 86% 30.47 in 10.0 mi Calm Calm - N/A   Clear
6:34 AM 24.8 °F 20.5 °F 21.2 °F 86% 30.47 in 10.0 mi North 3.5 mph - N/A   Clear
6:53 AM 26.6 °F 22.6 °F 21.2 °F 80% 30.46 in 10.0 mi North 3.5 mph - N/A   Clear
7:14 AM 26.6 °F 20.0 °F 21.2 °F 80% 30.46 in 10.0 mi North 5.8 mph - N/A   Clear
7:34 AM 28.4 °F 22.2 °F 23.0 °F 80% 30.45 in 10.0 mi North 5.8 mph - N/A   Clear
7:53 AM 30.2 °F 23.4 °F 23.0 °F 75% 30.45 in 10.0 mi NNE 6.9 mph - N/A   Clear
8:14 AM 32.0 °F 25.6 °F 23.0 °F 69% 30.44 in 10.0 mi NNE 6.9 mph - N/A   Clear
8:34 AM 33.8 °F 28.6 °F 24.8 °F 70% 30.44 in 10.0 mi NNE 5.8 mph - N/A   Clear
8:53 AM 33.8 °F 27.0 °F 23.0 °F 65% 30.44 in 10.0 mi NNE 8.1 mph - N/A   Clear
9:14 AM 35.6 °F 27.5 °F 23.0 °F 60% 30.43 in 10.0 mi NNE 11.5 mph 16.1 mph N/A   Clear
9:34 AM 35.6 °F 28.6 °F 23.0 °F 60% 30.43 in 10.0 mi NNE 9.2 mph - N/A   Clear
9:53 AM 37.4 °F 28.9 °F 23.0 °F 56% 30.42 in 10.0 mi North 13.8 mph 17.3 mph N/A   Clear
10:14 AM 37.4 °F 30.3 °F 21.2 °F 52% 30.41 in 10.0 mi NNE 10.4 mph - N/A   Clear
10:34 AM 37.4 °F 29.8 °F 23.0 °F 56% 30.40 in 10.0 mi North 11.5 mph 17.3 mph N/A   Clear
10:53 AM 39.2 °F 33.6 °F 23.0 °F 52% 30.39 in 10.0 mi NNE 8.1 mph 16.1 mph N/A   Clear
11:14 AM 41.0 °F 33.9 °F 23.0 °F 49% 30.39 in 10.0 mi NNE 12.7 mph 17.3 mph N/A   Clear
11:34 AM 41.0 °F 35.2 °F 23.0 °F 49% 30.38 in 10.0 mi NNE 9.2 mph 17.3 mph N/A   Clear
11:53 AM 42.8 °F 36.2 °F 23.0 °F 46% 30.37 in 10.0 mi NNE 12.7 mph 20.7 mph N/A   Clear
12:14 PM 42.8 °F 36.6 °F 24.8 °F 49% 30.37 in 10.0 mi North 11.5 mph - N/A   Clear
12:34 PM 42.8 °F 35.8 °F 23.0 °F 46% 30.36 in 10.0 mi NNE 13.8 mph 19.6 mph N/A   Clear
12:53 PM 44.6 °F 38.8 °F 24.8 °F 46% 30.35 in 10.0 mi North 11.5 mph 17.3 mph N/A   Clear
1:14 PM 44.6 °F 39.2 °F 23.0 °F 43% 30.34 in 10.0 mi NNE 10.4 mph - N/A   Clear
1:34 PM 44.6 °F 38.8 °F 24.8 °F 46% 30.33 in 10.0 mi North 11.5 mph 16.1 mph N/A   Clear
1:53 PM 44.6 °F 38.1 °F 24.8 °F 46% 30.32 in 10.0 mi North 13.8 mph - N/A   Clear
2:14 PM 46.4 °F 41.9 °F 21.2 °F 37% 30.31 in 10.0 mi NE 9.2 mph 16.1 mph N/A   Clear
2:34 PM 46.4 °F 42.4 °F 23.0 °F 40% 30.31 in 10.0 mi NNE 8.1 mph 12.7 mph N/A   Clear
2:54 PM 48.2 °F - 21.2 °F 34% 30.30 in 10.0 mi NNE 12.7 mph 18.4 mph N/A   Clear
3:14 PM 48.2 °F - 21.2 °F 34% 30.30 in 10.0 mi North 6.9 mph 25.3 mph N/A   Clear
3:34 PM 48.2 °F - 21.2 °F 34% 30.29 in 10.0 mi NNE 10.4 mph 20.7 mph N/A   Clear
3:54 PM 46.4 °F 41.9 °F 19.4 °F 34% 30.30 in 10.0 mi North 9.2 mph - N/A   Clear
4:14 PM 46.4 °F 41.1 °F 19.4 °F 34% 30.28 in 10.0 mi NNE 11.5 mph 16.1 mph N/A   Clear
4:33 PM 46.4 °F 41.9 °F 19.4 °F 34% 30.28 in 10.0 mi NNE 9.2 mph 18.4 mph N/A   Scattered Clouds
4:54 PM 44.6 °F 39.7 °F 19.4 °F 37% 30.28 in 10.0 mi NNE 9.2 mph - N/A   Mostly Cloudy
5:14 PM 44.6 °F 40.2 °F 19.4 °F 37% 30.27 in 10.0 mi NNE 8.1 mph - N/A   Overcast
5:34 PM 44.6 °F 39.2 °F 19.4 °F 37% 30.27 in 10.0 mi NNE 10.4 mph - N/A   Overcast
5:54 PM 44.6 °F 39.7 °F 21.2 °F 39% 3.02 in 10.0 mi NNE 9.2 mph - N/A   Mostly Cloudy
6:14 PM 44.6 °F 38.8 °F 23.0 °F 43% 30.28 in 10.0 mi North 11.5 mph - N/A   Overcast
6:34 PM 44.6 °F 38.8 °F 24.8 °F 46% 30.29 in 10.0 mi North 11.5 mph 17.3 mph N/A   Overcast
7:14 PM 42.8 °F 41.1 °F 24.8 °F 49% 30.28 in 10.0 mi NNE 3.5 mph - N/A   Mostly Cloudy
7:33 PM 42.8 °F 38.0 °F 24.8 °F 49% 30.29 in 10.0 mi NE 8.1 mph - N/A   Scattered Clouds
7:54 PM 42.8 °F 38.0 °F 24.8 °F 49% 30.28 in 10.0 mi NNE 8.1 mph - N/A   Scattered Clouds
8:14 PM 41.0 °F 38.0 °F 26.6 °F 57% 30.29 in 10.0 mi NE 4.6 mph - N/A   Scattered Clouds
8:33 PM 41.0 °F 35.8 °F 26.6 °F 57% 30.28 in 10.0 mi NE 8.1 mph - N/A   Scattered Clouds
8:54 PM 41.0 °F 37.1 °F 24.8 °F 53% 30.29 in 10.0 mi NNE 5.8 mph - N/A   Scattered Clouds
9:14 PM 39.2 °F 34.2 °F 24.8 °F 56% 30.29 in 10.0 mi NE 6.9 mph - N/A   Clear
9:33 PM 39.2 °F 35.0 °F 24.8 °F 56% 30.29 in 10.0 mi NE 5.8 mph - N/A   Scattered Clouds
9:54 PM 39.2 °F 35.9 °F 24.8 °F 56% 30.29 in 10.0 mi NNE 4.6 mph - N/A   Mostly Cloudy
10:14 PM 39.2 °F 35.0 °F 24.8 °F 56% 30.29 in 10.0 mi NNE 5.8 mph - N/A   Mostly Cloudy
10:33 PM 39.2 °F 35.9 °F 24.8 °F 56% 30.29 in 10.0 mi NNE 4.6 mph - N/A   Scattered Clouds
10:54 PM 39.2 °F 34.2 °F 24.8 °F 56% 30.28 in 10.0 mi NNE 6.9 mph - N/A   Clear
11:14 PM 39.2 °F 35.0 °F 24.8 °F 56% 30.28 in 10.0 mi NNE 5.8 mph - N/A   Scattered Clouds
11:33 PM 39.2 °F 35.9 °F 24.8 °F 56% 30.27 in 10.0 mi NNE 4.6 mph - N/A   Mostly Cloudy
11:54 PM 37.4 °F 33.8 °F 24.8 °F 60% 30.27 in 10.0 mi NNE 4.6 mph - N/A   Scattered Clouds